FW1492 Weather Reports


time (UTC)temp
C
wind
direction
speed
KPH
gust
KPH
rain 1hr
cm
rain 24hr
cm
rain mn
cm
humidity
%
barometer
mb
20260508193120 11 299 6.4 19.3 0.00 0.15 0.15 70 1013.1
20260508191607 12 314 6.4 12.9 0.00 0.15 0.15 69 1013.2
20260508190112 11 59 4.8 14.5 0.00 0.15 0.15 70 1013.3
20260508184556 11 318 6.4 14.5 0.00 0.15 0.15 66 1013.5
20260508183059 10 22 1.6 11.3 0.00 0.15 0.15 66 1013.4
20260508181601 10 275 3.2 11.3 0.00 0.15 0.15 65 1013.4
20260508180058 10 333 3.2 9.7 0.00 0.15 0.15 66 1013.3
20260508174553 11 241 3.2 9.7 0.00 0.15 0.15 62 1013.0
20260508173052 11 236 3.2 12.9 0.00 0.15 0.15 64 1012.9
20260508171551 11 319 3.2 12.9 0.00 0.15 0.15 62 1013.3
20260508170057 11 288 3.2 8.0 0.00 0.15 0.15 59 1013.2
20260508164549 11 272 4.8 12.9 0.00 0.15 0.15 59 1013.3
20260508163059 11 217 4.8 11.3 0.00 0.15 0.15 63 1013.3
20260508161554 11 276 4.8 9.7 0.00 0.15 0.15 63 1013.5
20260508160043 10 282 6.4 11.3 0.00 0.15 0.15 59 1013.7
20260508154543 10 214 4.8 9.7 0.00 0.15 0.15 62 1013.9
20260508153054 10 243 4.8 12.9 0.00 0.15 0.15 66 1014.0
20260508151541 9 257 4.8 14.5 0.00 0.15 0.15 65 1014.1
20260508150040 10 308 1.6 6.4 0.00 0.15 0.15 64 1014.2
20260508144538 10 320 3.2 9.7 0.00 0.15 0.15 62 1014.1
20260508143056 10 33 3.2 9.7 0.00 0.15 0.15 65 1014.0
20260508141537 8 288 1.6 6.4 0.00 0.15 0.15 70 1014.0
20260508140030 8 254 1.6 8.0 0.00 0.15 0.15 75 1014.0
20260508134535 8 314 3.2 14.5 0.00 0.15 0.15 76 1014.3
20260508133028 7 333 3.2 9.7 0.00 0.15 0.15 78 1014.3
20260508131528 7 262 1.6 11.3 0.00 0.15 0.15 82 1014.3
20260508130027 6 323 3.2 11.3 0.00 0.15 0.15 85 1014.1
20260508124529 6 323 1.6 9.7 0.00 0.15 0.15 88 1014.3
20260508123028 5 316 1.6 6.4 0.00 0.15 0.15 89 1014.2
20260508121524 5 295 1.6 6.4 0.00 0.15 0.15 91 1014.2
20260508120026 4 327 1.6 8.0 0.00 0.15 0.15 93 1014.2
20260508114524 4 248 1.6 4.8 0.00 0.15 0.15 94 1014.3
20260508113022 3 326 1.6 8.0 0.00 0.15 0.15 94 1013.9
20260508111520 3 304 0.0 8.0 0.00 0.15 0.15 95 1013.9
20260508110030 3 321 0.0 3.2 0.00 0.15 0.15 94 1013.9
20260508104518 3 319 0.0 3.2 0.00 0.15 0.15 94 1013.7
20260508103035 3 319 0.0 4.8 0.00 0.15 0.15 94 1013.6
20260508101517 3 29 1.6 4.8 0.00 0.15 0.15 94 1013.4
20260508100014 3 316 1.6 4.8 0.00 0.15 0.15 94 1013.2
20260508094511 3 321 0.0 3.2 0.00 0.15 0.15 94 1013.0
20260508093013 3 314 0.0 3.2 0.00 0.15 0.15 94 1012.8
20260508091513 3 314 0.0 1.6 0.00 0.15 0.15 93 1012.9
20260508090009 3 310 0.0 3.2 0.00 0.15 0.15 93 1012.9
20260508084508 3 330 0.0 1.6 0.00 0.15 0.15 93 1012.7
20260508083007 3 330 0.0 3.2 0.05 0.15 0.15 93 1012.5
20260508081505 3 335 0.0 3.2 0.05 0.15 0.15 92 1012.5
20260508080004 4 13 0.0 4.8 0.05 0.15 0.15 92 1012.5
20260508074504 4 333 3.2 6.4 0.05 0.18 0.15 92 1012.5
20260508073001 4 324 1.6 8.0 0.00 0.13 0.10 92 1012.8
20260508071600 4 341 1.6 4.8 0.00 0.13 0.10 91 1012.7
20260508070059 4 349 0.0 3.2 0.00 0.13 0.10 90 1012.8
20260508064557 4 55 0.0 9.7 0.03 0.23 0.10 90 1012.7
20260508063058 5 4 3.2 11.3 0.05 0.23 0.10 89 1013.0
20260508061551 5 39 3.2 9.7 0.08 0.23 0.10 89 1012.7
20260508054628 6 18 0.0 1.6 0.08 0.23 0.08 85 1013.1
20260508053050 6 42 3.2 11.3 0.05 0.20 0.05 81 1013.1
20260508051538 7 270 3.2 16.1 0.00 0.15 0.00 72 1012.8
20260508050033 8 319 1.6 6.4 0.00 0.15 0.00 65 1011.8
20260508044532 8 37 0.0 1.6 0.00 0.15 0.00 63 1010.6
20260508043034 8 41 0.0 1.6 0.00 0.15 0.00 61 1010.5
20260508041526 8 41 0.0 1.6 0.00 0.15 0.00 60 1010.5
20260508040031 8 29 0.0 0.0 0.00 0.15 0.00 60 1011.0
20260508034533 8 29 0.0 0.0 0.00 0.15 0.15 59 1010.9
20260508033029 8 29 0.0 0.0 0.00 0.15 0.15 58 1010.7
20260508031521 8 29 0.0 1.6 0.00 0.15 0.15 58 1010.8
20260508030022 8 29 0.0 0.0 0.00 0.15 0.15 58 1011.0
20260508024524 8 28 0.0 0.0 0.00 0.15 0.15 58 1011.0
20260508023019 8 28 0.0 0.0 0.00 0.15 0.15 58 1011.0
20260508021520 8 28 0.0 0.0 0.00 0.15 0.15 58 1011.0
20260508020019 8 29 0.0 0.0 0.00 0.15 0.15 58 1010.8
20260508014519 8 53 0.0 1.6 0.00 0.15 0.15 58 1010.8
20260508013018 8 53 0.0 0.0 0.00 0.15 0.15 58 1010.7
20260508011518 9 53 0.0 0.0 0.00 0.15 0.15 57 1010.7
20260508010027 9 53 0.0 1.6 0.00 0.15 0.15 56 1010.6
20260508004524 10 52 0.0 1.6 0.00 0.28 0.15 56 1010.5
20260508003017 10 39 0.0 1.6 0.00 0.28 0.15 54 1010.4
20260508001516 10 36 0.0 1.6 0.00 0.28 0.15 53 1010.3
20260508000016 11 301 0.0 3.2 0.00 0.28 0.15 52 1010.1
20260507234516 11 10 0.0 3.2 0.00 0.28 0.15 50 1009.9
20260507233114 12 45 1.6 11.3 0.00 0.28 0.15 48 1009.9
20260507231513 12 43 1.6 8.0 0.00 0.28 0.15 47 1009.7
20260507230021 12 36 0.0 6.4 0.00 0.28 0.15 48 1009.7
20260507224516 12 27 1.6 6.4 0.00 0.28 0.15 48 1009.7
20260507223011 12 53 0.0 8.0 0.00 0.28 0.15 47 1009.5
20260507221511 12 41 3.2 11.3 0.00 0.28 0.15 47 1009.7
20260507220010 13 37 4.8 16.1 0.00 0.28 0.15 46 1009.7
20260507214515 13 316 1.6 11.3 0.00 0.28 0.15 46 1009.7
20260507213008 12 33 3.2 20.9 0.00 0.28 0.15 45 1009.6
20260507211508 12 30 6.4 19.3 0.00 0.28 0.15 44 1009.4
20260507210007 13 316 8.0 22.5 0.00 0.28 0.15 43 1009.6
20260507204505 14 347 4.8 19.3 0.00 0.28 0.15 41 1009.3
20260507203003 14 301 4.8 20.9 0.00 0.28 0.15 44 1009.4
20260507201502 14 322 6.4 14.5 0.00 0.28 0.15 43 1009.3
20260507194600 13 307 6.4 24.1 0.00 0.33 0.15 43 1009.4